Regional Weather Roundup
Issued by NWS Cleveland, OH

Home | Current Version | Previous Version | Text Only | Print | Product List | Glossary Off
Versions: 1 2 3 4 5 6 7 8 9 10 11 12 13 14 15 16 17 18 19 20 21 22 23 24 25 26 27 28 29 30 31 32 33 34 35 36 37 38 39 40 41 42 43 44 45 46 47 48 49 50

000
ASUS41 KCLE 202200
RWRCLE
OHIO REGIONAL WEATHER ROUNDUP
NATIONAL WEATHER SERVICE WILMINGTON, OH
500 PM EST THU NOV 20 2014

NOTE: "FAIR" INDICATES FEW OR NO CLOUDS BELOW 12,000 FEET WITH NO
SIGNIFICANT WEATHER AND/OR OBSTRUCTIONS TO VISIBILITY.

OHZ001>008-015>018-024>027-034-035-043-044-202300-
   NORTHWEST OHIO

CITY           SKY/WX    TMP DP  RH WIND       PRES   REMARKS
DEFIANCE       MOCLDY    27  11  51 W6        30.05R WCI  20
FINDLAY        CLOUDY    26  15  63 SW17G25   30.05R WCI  13
TOLEDO EXPRESS PTCLDY    24  11  57 W16G23    30.03R WCI  11
TOLEDO METCALF PTCLDY    26  11  52 W18G26    30.04R WCI  13
LIMA           CLOUDY    26  14  60 W20       30.07R WCI  12
$$

OHZ009>014-019>023-028>033-038-089-202300-
   NORTHEAST OHIO

CITY           SKY/WX    TMP DP  RH WIND       PRES   REMARKS
CLE-HOPKINS    FLURRIES  25  12  58 W28G35    30.05R WCI   9
CLE-LAKEFRONT  CLOUDY    26  14  60 SW28G36   30.02R WCI  10
CUY CO. ARPT   CLOUDY    28  14  54 W16G29    30.01R WCI  17
LORAIN-ELYRIA  CLOUDY    24  11  57 W20G25    30.03R WCI  10
ASHTABULA      LGT SNOW  24  11  57 W21       29.98R WCI   9
AKRON-CANTON   MOCLDY    25  10  53 W16G22    30.01R WCI  12
WOOSTER        NOT AVBL
MANSFIELD      MOCLDY    23  11  60 W16G24    30.03R WCI  10
YOUNGSTOWN     LGT SNOW  24  11  57 W22G29    29.99R WCI   9
$$

OHZ042-051>053-060>062-070>072-077>081-202300-
  SOUTHWEST OHIO

CITY           SKY/WX    TMP DP  RH WIND       PRES   REMARKS
CINC-COVINGTON PTCLDY    30  13  49 SW7       30.15R WCI  23
CINC-LUNKEN    CLEAR     30  14  51 W12       30.18R WCI  20
HAMILTON       CLEAR     31  15  52 SW10      30.16R WCI  22
DAYTON         NOT AVBL
WRIGHT-PAT AFB NOT AVBL
DAYTON GENERAL CLEAR     29  14  53 W13       30.11R WCI  19
WILMINGTON     CLEAR     27  14  58 W12       30.11R WCI  17
$$

OHZ036-037-039>041-045>050-054>059-063>069-073>076-082>088-202300-
  CENTRAL AND SOUTHEAST OHIO

CITY           SKY/WX    TMP DP  RH WIND       PRES   REMARKS
COLUMBUS       PTCLDY    27  13  55 SW15      30.10R WCI  15
OSU AIRPORT    MOCLDY    26  14  60 W10       30.09R WCI  16
BOLTON FIELD   CLEAR     27  16  63 SW9       30.11R WCI  17
RICKENBACK AFB NOT AVBL
NEWARK         PTCLDY    27  13  55 SW13      30.08R WCI  16
MARION         MOCLDY    25  13  60 W15G21    30.07R WCI  13
LANCASTER      CLEAR     27  15  61 W8        30.11R WCI  19
ZANESVILLE     PTCLDY    26  13  57 W10       30.09R WCI  16
NEW PHILLY     CLOUDY    27  11  51 SW10G23   30.07R WCI  17
$$


USA.gov is the U.S. government's official web portal to all federal, state and local government web resources and services.